| time (UTC) | temp C | wind direction | speed KPH | gust KPH | rain 1hr cm | rain 24hr cm | rain mn cm | humidity % | barometer mb |
| 20260906052727 | 22 | 357 | 0.0 | 0.0 | 0.00 | 0.00 | 0.00 | 92 | 1019.1 |
| 20260906052223 | 22 | 4 | 1.6 | 1.6 | 0.00 | 0.00 | 0.00 | 92 | 1019.2 |
| 20260906051720 | 22 | 0 | 0.0 | 0.0 | 0.00 | 0.00 | 0.00 | 93 | 1019.3 |
| 20260906051219 | 22 | 358 | 0.0 | 0.0 | 0.00 | 0.00 | 0.00 | 93 | 1019.4 |
| 20260906050714 | 22 | 355 | 0.0 | 0.0 | 0.00 | 0.00 | 0.00 | 93 | 1019.6 |
| 20260906050210 | 22 | 351 | 0.0 | 0.0 | 0.00 | 0.00 | 0.00 | 93 | 1019.4 |
| 20260906045708 | 22 | 348 | 0.0 | 0.0 | 0.00 | 0.00 | 0.00 | 92 | 1019.6 |
| 20260906045203 | 22 | 345 | 0.0 | 0.0 | 0.00 | 0.00 | 0.00 | 93 | 1019.6 |
| 20260906044659 | 22 | 345 | 0.0 | 0.0 | 0.00 | 0.00 | 0.00 | 93 | 1019.6 |
| 20260906044154 | 22 | 352 | 0.0 | 0.0 | 0.00 | 0.00 | 0.00 | 92 | 1019.5 |
| 20260906043650 | 22 | 349 | 0.0 | 0.0 | 0.00 | 0.00 | 0.00 | 92 | 1019.7 |
| 20260906043146 | 23 | 349 | 0.0 | 0.0 | 0.00 | 0.00 | 0.00 | 92 | 1019.5 |
| 20260906042646 | 23 | 348 | 0.0 | 0.0 | 0.00 | 0.00 | 0.00 | 91 | 1019.4 |
| 20260906042145 | 23 | 65 | 3.2 | 3.2 | 0.00 | 0.00 | 0.00 | 91 | 1019.4 |
| 20260906041641 | 23 | 358 | 0.0 | 0.0 | 0.00 | 0.00 | 0.00 | 91 | 1019.3 |
| 20260906041136 | 23 | 1 | 0.0 | 0.0 | 0.00 | 0.00 | 0.00 | 91 | 1019.3 |
| 20260906040631 | 23 | 343 | 0.0 | 0.0 | 0.00 | 0.00 | 0.00 | 90 | 1019.0 |
| 20260906040127 | 23 | 54 | 1.6 | 1.6 | 0.00 | 0.00 | 0.00 | 89 | 1018.8 |
| 20260906035622 | 23 | 52 | 3.2 | 3.2 | 0.00 | 0.46 | 0.46 | 90 | 1018.5 |
| 20260906035118 | 23 | 25 | 1.6 | 1.6 | 0.00 | 0.46 | 0.46 | 90 | 1019.0 |
| 20260906034617 | 23 | 6 | 0.0 | 0.0 | 0.00 | 0.46 | 0.46 | 88 | 1018.9 |
| 20260906034112 | 23 | 6 | 0.0 | 0.0 | 0.00 | 0.46 | 0.46 | 88 | 1018.9 |
| 20260906033608 | 23 | 13 | 0.0 | 0.0 | 0.00 | 0.46 | 0.46 | 89 | 1018.6 |
| 20260906033103 | 23 | 13 | 0.0 | 0.0 | 0.00 | 0.46 | 0.46 | 89 | 1018.7 |
| 20260906032600 | 23 | 20 | 0.0 | 0.0 | 0.00 | 0.46 | 0.46 | 88 | 1018.8 |
| 20260906032059 | 23 | 13 | 0.0 | 1.6 | 0.00 | 0.46 | 0.46 | 89 | 1018.8 |
| 20260906031555 | 23 | 3 | 0.0 | 0.0 | 0.00 | 0.46 | 0.46 | 88 | 1018.8 |
| 20260906031050 | 23 | 354 | 0.0 | 0.0 | 0.00 | 0.46 | 0.46 | 88 | 1018.7 |
| 20260906030550 | 23 | 35 | 1.6 | 1.6 | 0.00 | 0.46 | 0.46 | 90 | 1018.9 |
| 20260906030050 | 23 | 348 | 0.0 | 0.0 | 0.00 | 0.46 | 0.46 | 89 | 1018.3 |
| 20260906025549 | 23 | 348 | 0.0 | 0.0 | 0.00 | 0.46 | 0.46 | 88 | 1018.5 |
| 20260906025048 | 23 | 348 | 0.0 | 0.0 | 0.00 | 0.46 | 0.46 | 88 | 1018.8 |
| 20260906024544 | 24 | 355 | 0.0 | 0.0 | 0.00 | 0.46 | 0.46 | 87 | 1018.6 |
| 20260906024043 | 24 | 340 | 0.0 | 0.0 | 0.00 | 0.46 | 0.46 | 86 | 1018.7 |
| 20260906023540 | 24 | 3 | 0.0 | 0.0 | 0.00 | 0.46 | 0.46 | 86 | 1018.8 |
| 20260906023034 | 24 | 8 | 0.0 | 0.0 | 0.00 | 0.46 | 0.46 | 87 | 1018.8 |
| 20260906022529 | 24 | 7 | 0.0 | 0.0 | 0.00 | 0.46 | 0.46 | 87 | 1018.8 |
| 20260906022025 | 24 | 29 | 1.6 | 1.6 | 0.00 | 0.46 | 0.46 | 87 | 1018.8 |
| 20260906021520 | 24 | 0 | 0.0 | 0.0 | 0.00 | 0.46 | 0.46 | 86 | 1018.8 |
| 20260906021014 | 25 | 354 | 0.0 | 0.0 | 0.00 | 0.46 | 0.46 | 85 | 1018.6 |
| 20260906020514 | 25 | 346 | 0.0 | 0.0 | 0.00 | 0.46 | 0.46 | 85 | 1018.6 |
| 20260906020013 | 25 | 13 | 0.0 | 0.0 | 0.00 | 0.46 | 0.46 | 84 | 1018.8 |
| 20260906015513 | 25 | 345 | 0.0 | 1.6 | 0.00 | 0.46 | 0.46 | 83 | 1018.8 |
| 20260906015012 | 25 | 344 | 0.0 | 0.0 | 0.00 | 0.46 | 0.46 | 82 | 1018.9 |
| 20260906014507 | 25 | 344 | 0.0 | 0.0 | 0.00 | 0.46 | 0.46 | 82 | 1018.6 |
| 20260906014003 | 25 | 344 | 0.0 | 0.0 | 0.00 | 0.46 | 0.46 | 81 | 1018.8 |
| 20260906013458 | 25 | 344 | 0.0 | 0.0 | 0.00 | 0.46 | 0.46 | 81 | 1018.4 |
| 20260906012954 | 25 | 343 | 0.0 | 0.0 | 0.00 | 0.46 | 0.46 | 81 | 1018.6 |
| 20260906012448 | 26 | 337 | 0.0 | 1.6 | 0.00 | 0.46 | 0.46 | 80 | 1018.4 |
| 20260906011947 | 26 | 346 | 0.0 | 0.0 | 0.00 | 0.46 | 0.46 | 79 | 1018.1 |
| 20260906011443 | 26 | 11 | 0.0 | 0.0 | 0.00 | 0.46 | 0.46 | 78 | 1018.4 |
| 20260906010938 | 26 | 13 | 0.0 | 0.0 | 0.00 | 0.46 | 0.46 | 78 | 1018.3 |
| 20260906010434 | 26 | 354 | 0.0 | 0.0 | 0.00 | 0.46 | 0.46 | 76 | 1018.4 |
| 20260906005930 | 26 | 352 | 0.0 | 0.0 | 0.00 | 0.46 | 0.46 | 76 | 1018.5 |
| 20260906005429 | 26 | 21 | 1.6 | 3.2 | 0.00 | 0.46 | 0.46 | 75 | 1018.5 |
| 20260906004928 | 27 | 0 | 0.0 | 0.0 | 0.00 | 0.46 | 0.46 | 75 | 1018.4 |
| 20260906004422 | 27 | 53 | 1.6 | 3.2 | 0.00 | 0.46 | 0.46 | 75 | 1018.4 |
| 20260906003918 | 27 | 348 | 0.0 | 0.0 | 0.00 | 0.46 | 0.46 | 75 | 1018.3 |
| 20260906003413 | 27 | 350 | 0.0 | 0.0 | 0.00 | 0.46 | 0.46 | 74 | 1018.0 |
| 20260906002909 | 27 | 7 | 0.0 | 0.0 | 0.00 | 0.46 | 0.46 | 73 | 1017.9 |
| 20260906002408 | 27 | 17 | 0.0 | 0.0 | 0.00 | 0.46 | 0.46 | 73 | 1017.8 |
| 20260906001904 | 28 | 344 | 0.0 | 0.0 | 0.00 | 0.46 | 0.46 | 72 | 1018.3 |
| 20260906001359 | 28 | 6 | 0.0 | 0.0 | 0.00 | 0.46 | 0.46 | 71 | 1017.9 |
| 20260906000859 | 28 | 20 | 1.6 | 1.6 | 0.00 | 0.46 | 0.46 | 71 | 1018.1 |
| 20260906000400 | 28 | 18 | 1.6 | 1.6 | 0.00 | 0.46 | 0.46 | 70 | 1018.0 |
| 20260905235855 | 29 | 318 | 1.6 | 1.6 | 0.00 | 0.46 | 0.46 | 69 | 1018.0 |
| 20260905235349 | 30 | 67 | 1.6 | 3.2 | 0.00 | 0.46 | 0.46 | 67 | 1018.3 |
| 20260905234844 | 30 | 348 | 0.0 | 1.6 | 0.00 | 0.46 | 0.46 | 68 | 1018.4 |
| 20260905234339 | 30 | 2 | 0.0 | 0.0 | 0.00 | 0.46 | 0.46 | 68 | 1018.3 |
| 20260905233834 | 30 | 350 | 0.0 | 0.0 | 0.00 | 0.46 | 0.46 | 66 | 1018.1 |
| 20260905233329 | 31 | 6 | 0.0 | 0.0 | 0.00 | 0.46 | 0.46 | 69 | 1018.3 |
| 20260905232828 | 31 | 7 | 0.0 | 0.0 | 0.00 | 0.46 | 0.46 | 67 | 1018.1 |
| 20260905232325 | 31 | 346 | 0.0 | 0.0 | 0.00 | 0.46 | 0.46 | 64 | 1018.5 |
| 20260905231820 | 31 | 335 | 1.6 | 1.6 | 0.00 | 0.46 | 0.46 | 63 | 1018.6 |
| 20260905231315 | 32 | 336 | 0.0 | 0.0 | 0.00 | 0.46 | 0.46 | 64 | 1018.1 |
| 20260905230812 | 33 | 340 | 0.0 | 0.0 | 0.00 | 0.46 | 0.46 | 59 | 1018.4 |
| 20260905230310 | 32 | 342 | 0.0 | 0.0 | 0.00 | 0.46 | 0.46 | 59 | 1018.4 |
| 20260905225809 | 32 | 340 | 0.0 | 1.6 | 0.00 | 0.46 | 0.46 | 60 | 1018.4 |
| 20260905225306 | 32 | 324 | 3.2 | 3.2 | 0.00 | 0.46 | 0.46 | 59 | 1018.3 |
| 20260905224804 | 33 | 301 | 1.6 | 3.2 | 0.00 | 0.46 | 0.46 | 60 | 1018.0 |
| 20260905224259 | 33 | 321 | 1.6 | 1.6 | 0.00 | 0.46 | 0.46 | 55 | 1018.3 |
| 20260905223755 | 33 | 325 | 1.6 | 1.6 | 0.00 | 0.46 | 0.46 | 56 | 1018.0 |
| 20260905223252 | 32 | 314 | 3.2 | 3.2 | 0.00 | 0.46 | 0.46 | 57 | 1018.4 |
| 20260905222747 | 33 | 328 | 4.8 | 4.8 | 0.00 | 0.46 | 0.46 | 57 | 1018.3 |
| 20260905222246 | 33 | 279 | 1.6 | 3.2 | 0.00 | 0.46 | 0.46 | 57 | 1018.1 |
| 20260905221742 | 33 | 308 | 1.6 | 3.2 | 0.00 | 0.46 | 0.46 | 56 | 1018.1 |
| 20260905221239 | 33 | 300 | 4.8 | 4.8 | 0.00 | 0.46 | 0.46 | 57 | 1018.3 |
| 20260905220734 | 33 | 302 | 4.8 | 8.0 | 0.00 | 0.46 | 0.46 | 55 | 1018.4 |
| 20260905220230 | 33 | 297 | 8.0 | 9.7 | 0.00 | 0.46 | 0.46 | 55 | 1018.3 |
| 20260905215729 | 33 | 307 | 6.4 | 8.0 | 0.00 | 0.46 | 0.46 | 54 | 1018.3 |
| 20260905215225 | 34 | 290 | 4.8 | 4.8 | 0.00 | 0.46 | 0.46 | 54 | 1018.1 |
| 20260905214721 | 34 | 333 | 1.6 | 1.6 | 0.00 | 0.46 | 0.46 | 52 | 1018.3 |
| 20260905214216 | 34 | 311 | 3.2 | 3.2 | 0.00 | 0.46 | 0.46 | 53 | 1018.5 |
| 20260905213712 | 33 | 322 | 1.6 | 3.2 | 0.00 | 0.46 | 0.46 | 52 | 1018.4 |
| 20260905213208 | 33 | 321 | 6.4 | 8.0 | 0.00 | 0.46 | 0.46 | 52 | 1018.4 |
| 20260905212703 | 33 | 308 | 3.2 | 3.2 | 0.00 | 0.46 | 0.46 | 54 | 1018.4 |
| 20260905212202 | 33 | 294 | 4.8 | 8.0 | 0.00 | 0.46 | 0.46 | 55 | 1018.3 |
| 20260905211656 | 32 | 303 | 9.7 | 11.3 | 0.00 | 0.46 | 0.46 | 56 | 1018.3 |
| 20260905211152 | 33 | 316 | 3.2 | 4.8 | 0.00 | 0.46 | 0.46 | 55 | 1018.0 |
| 20260905210649 | 33 | 280 | 4.8 | 4.8 | 0.00 | 0.46 | 0.46 | 55 | 1018.3 |
| 20260905210148 | 33 | 320 | 4.8 | 4.8 | 0.00 | 0.46 | 0.46 | 56 | 1018.3 |
| 20260905205647 | 33 | 315 | 8.0 | 9.7 | 0.00 | 0.46 | 0.46 | 57 | 1018.0 |
| 20260905205141 | 33 | 336 | 3.2 | 4.8 | 0.00 | 0.46 | 0.46 | 55 | 1018.0 |
| 20260905204640 | 33 | 304 | 4.8 | 4.8 | 0.00 | 0.46 | 0.46 | 57 | 1018.0 |
| 20260905204137 | 33 | 325 | 6.4 | 8.0 | 0.00 | 0.46 | 0.46 | 56 | 1018.3 |
| 20260905203637 | 32 | 284 | 8.0 | 9.7 | 0.00 | 0.46 | 0.46 | 56 | 1018.4 |
| 20260905203132 | 33 | 279 | 8.0 | 8.0 | 0.00 | 0.46 | 0.46 | 57 | 1018.4 |
| 20260905202627 | 33 | 312 | 4.8 | 4.8 | 0.00 | 0.46 | 0.46 | 52 | 1018.3 |
| 20260905202123 | 33 | 276 | 6.4 | 8.0 | 0.00 | 0.46 | 0.46 | 54 | 1018.5 |
| 20260905201618 | 32 | 301 | 8.0 | 12.9 | 0.00 | 0.46 | 0.46 | 57 | 1018.7 |
| 20260905201117 | 33 | 301 | 6.4 | 8.0 | 0.00 | 0.46 | 0.46 | 56 | 1018.9 |
| 20260905200613 | 32 | 244 | 4.8 | 4.8 | 0.00 | 0.46 | 0.46 | 56 | 1018.9 |
| 20260905200109 | 32 | 293 | 9.7 | 12.9 | 0.00 | 0.46 | 0.46 | 54 | 1018.7 |
| 20260905195602 | 32 | 273 | 8.0 | 9.7 | 0.00 | 0.46 | 0.46 | 54 | 1018.8 |
| 20260905195057 | 32 | 280 | 3.2 | 3.2 | 0.00 | 0.46 | 0.46 | 57 | 1018.9 |
| 20260905194557 | 32 | 259 | 4.8 | 4.8 | 0.00 | 0.46 | 0.46 | 55 | 1018.9 |
| 20260905194056 | 33 | 330 | 8.0 | 9.7 | 0.00 | 0.46 | 0.46 | 56 | 1019.1 |
| 20260905193551 | 33 | 263 | 9.7 | 12.9 | 0.00 | 0.46 | 0.46 | 54 | 1019.1 |
| 20260905193047 | 33 | 299 | 4.8 | 4.8 | 0.00 | 0.46 | 0.46 | 54 | 1019.0 |
| 20260905192542 | 33 | 287 | 1.6 | 3.2 | 0.00 | 0.46 | 0.46 | 53 | 1019.2 |
| 20260905192038 | 33 | 273 | 8.0 | 9.7 | 0.00 | 0.46 | 0.46 | 54 | 1019.1 |
| 20260905191536 | 33 | 232 | 3.2 | 3.2 | 0.00 | 0.46 | 0.46 | 57 | 1019.3 |
| 20260905191035 | 33 | 245 | 8.0 | 9.7 | 0.00 | 0.46 | 0.46 | 56 | 1019.2 |
| 20260905190534 | 33 | 281 | 3.2 | 4.8 | 0.00 | 0.46 | 0.46 | 54 | 1019.4 |
| 20260905190034 | 33 | 243 | 6.4 | 8.0 | 0.00 | 0.46 | 0.46 | 52 | 1019.7 |
| 20260905185533 | 33 | 227 | 4.8 | 4.8 | 0.00 | 0.46 | 0.46 | 53 | 1019.6 |
| 20260905185033 | 32 | 292 | 1.6 | 3.2 | 0.00 | 0.46 | 0.46 | 54 | 1019.7 |
| 20260905184533 | 32 | 231 | 6.4 | 8.0 | 0.00 | 0.46 | 0.46 | 53 | 1019.8 |
| 20260905184032 | 32 | 64 | 4.8 | 8.0 | 0.00 | 0.46 | 0.46 | 56 | 1019.9 |
| 20260905183531 | 32 | 227 | 6.4 | 8.0 | 0.00 | 0.46 | 0.46 | 58 | 1020.0 |
| 20260905183027 | 31 | 273 | 3.2 | 3.2 | 0.00 | 0.46 | 0.46 | 58 | 1020.0 |
| 20260905182521 | 31 | 292 | 9.7 | 9.7 | 0.00 | 0.46 | 0.46 | 59 | 1020.3 |
| 20260905182021 | 31 | 245 | 6.4 | 8.0 | 0.00 | 0.46 | 0.46 | 60 | 1020.1 |
| 20260905181516 | 32 | 220 | 9.7 | 14.5 | 0.00 | 0.46 | 0.46 | 60 | 1020.4 |
| 20260905181015 | 31 | 110 | 3.2 | 4.8 | 0.00 | 0.46 | 0.46 | 60 | 1020.3 |
| 20260905180510 | 31 | 235 | 6.4 | 9.7 | 0.00 | 0.46 | 0.46 | 60 | 1020.5 |
| 20260905180005 | 31 | 321 | 1.6 | 1.6 | 0.00 | 0.46 | 0.46 | 59 | 1020.6 |
| 20260905175504 | 31 | 265 | 3.2 | 3.2 | 0.00 | 0.46 | 0.46 | 64 | 1020.5 |
| 20260905175000 | 31 | 102 | 3.2 | 4.8 | 0.00 | 0.46 | 0.46 | 60 | 1020.6 |
| 20260905174455 | 31 | 329 | 3.2 | 3.2 | 0.00 | 0.46 | 0.46 | 59 | 1020.6 |
| 20260905173951 | 31 | 258 | 4.8 | 4.8 | 0.00 | 0.46 | 0.46 | 59 | 1020.8 |
| 20260905173447 | 30 | 144 | 3.2 | 4.8 | 0.00 | 0.46 | 0.46 | 62 | 1020.7 |
| 20260905172942 | 31 | 25 | 3.2 | 4.8 | 0.00 | 0.46 | 0.46 | 64 | 1020.8 |
| 20260905172440 | 30 | 237 | 1.6 | 1.6 | 0.00 | 0.46 | 0.46 | 64 | 1020.6 |
| 20260905171936 | 30 | 221 | 4.8 | 4.8 | 0.00 | 0.46 | 0.46 | 63 | 1020.7 |
| 20260905171432 | 30 | 330 | 1.6 | 3.2 | 0.00 | 0.46 | 0.46 | 70 | 1020.8 |
| 20260905170929 | 30 | 248 | 8.0 | 9.7 | 0.00 | 0.46 | 0.46 | 70 | 1020.9 |
| 20260905170424 | 30 | 156 | 6.4 | 9.7 | 0.00 | 0.46 | 0.46 | 69 | 1020.8 |
| 20260905165924 | 29 | 29 | 1.6 | 3.2 | 0.00 | 0.46 | 0.46 | 68 | 1020.7 |
| 20260905165419 | 29 | 129 | 6.4 | 8.0 | 0.00 | 0.46 | 0.46 | 68 | 1020.8 |
| 20260905164915 | 28 | 37 | 4.8 | 8.0 | 0.00 | 0.46 | 0.46 | 72 | 1020.6 |
| 20260905164415 | 28 | 142 | 4.8 | 4.8 | 0.00 | 0.46 | 0.46 | 75 | 1020.5 |
| 20260905163915 | 28 | 191 | 4.8 | 4.8 | 0.00 | 0.46 | 0.46 | 76 | 1020.9 |
| 20260905163412 | 28 | 235 | 8.0 | 9.7 | 0.00 | 0.46 | 0.46 | 74 | 1020.7 |
| 20260905162908 | 27 | 256 | 4.8 | 4.8 | 0.00 | 0.46 | 0.46 | 76 | 1020.8 |
| 20260905162402 | 28 | 230 | 4.8 | 4.8 | 0.00 | 0.46 | 0.46 | 75 | 1020.8 |
| 20260905161857 | 28 | 150 | 9.7 | 12.9 | 0.00 | 0.46 | 0.46 | 73 | 1020.9 |
| 20260905161356 | 28 | 324 | 4.8 | 4.8 | 0.00 | 0.46 | 0.46 | 76 | 1020.9 |
| 20260905160855 | 28 | 3 | 0.0 | 1.6 | 0.00 | 0.46 | 0.46 | 74 | 1021.1 |
| 20260905160354 | 27 | 288 | 3.2 | 4.8 | 0.00 | 0.46 | 0.46 | 78 | 1021.3 |
| 20260905155849 | 27 | 210 | 3.2 | 3.2 | 0.00 | 0.46 | 0.46 | 75 | 1021.4 |
| 20260905155348 | 27 | 115 | 1.6 | 3.2 | 0.00 | 0.46 | 0.46 | 76 | 1021.3 |
| 20260905154848 | 27 | 149 | 4.8 | 4.8 | 0.00 | 0.46 | 0.46 | 76 | 1021.5 |
| 20260905154343 | 26 | 137 | 4.8 | 4.8 | 0.00 | 0.46 | 0.46 | 78 | 1021.2 |
| 20260905153838 | 26 | 73 | 3.2 | 3.2 | 0.00 | 0.46 | 0.46 | 78 | 1021.7 |
| 20260905153335 | 26 | 240 | 3.2 | 4.8 | 0.00 | 0.46 | 0.46 | 79 | 1021.5 |
| 20260905152835 | 26 | 39 | 3.2 | 3.2 | 0.00 | 0.46 | 0.46 | 80 | 1021.8 |
| 20260905152334 | 25 | 89 | 4.8 | 8.0 | 0.00 | 0.46 | 0.46 | 82 | 1021.7 |
| 20260905151829 | 25 | 100 | 3.2 | 4.8 | 0.00 | 0.46 | 0.46 | 85 | 1021.8 |
| 20260905151325 | 25 | 153 | 4.8 | 4.8 | 0.00 | 0.46 | 0.46 | 82 | 1021.9 |
| 20260905150824 | 25 | 356 | 1.6 | 1.6 | 0.00 | 0.46 | 0.46 | 85 | 1022.0 |
| 20260905150319 | 25 | 76 | 4.8 | 4.8 | 0.00 | 0.46 | 0.46 | 83 | 1022.1 |
| 20260905145816 | 24 | 61 | 1.6 | 3.2 | 0.00 | 0.46 | 0.46 | 86 | 1022.1 |
| 20260905145310 | 23 | 169 | 3.2 | 4.8 | 0.00 | 0.46 | 0.46 | 90 | 1022.3 |
| 20260905144809 | 22 | 77 | 1.6 | 3.2 | 0.00 | 0.46 | 0.46 | 93 | 1022.2 |
| 20260905144305 | 22 | 121 | 3.2 | 3.2 | 0.00 | 0.46 | 0.46 | 94 | 1022.2 |
| 20260905143804 | 22 | 22 | 1.6 | 1.6 | 0.00 | 0.46 | 0.46 | 96 | 1022.3 |
| 20260905143258 | 21 | 82 | 1.6 | 1.6 | 0.00 | 0.46 | 0.46 | 97 | 1022.3 |
| 20260905142756 | 21 | 55 | 3.2 | 4.8 | 0.00 | 0.46 | 0.46 | 97 | 1022.4 |
| 20260905142251 | 21 | 120 | 1.6 | 1.6 | 0.00 | 0.46 | 0.46 | 99 | 1022.3 |
| 20260905141748 | 21 | 303 | 1.6 | 1.6 | 0.00 | 0.46 | 0.46 | 98 | 1022.7 |
| 20260905141244 | 21 | 50 | 0.0 | 1.6 | 0.00 | 0.46 | 0.46 | 98 | 1022.5 |
| 20260905140739 | 21 | 20 | 0.0 | 0.0 | 0.00 | 0.46 | 0.46 | 98 | 1022.8 |
| 20260905140239 | 21 | 154 | 3.2 | 3.2 | 0.00 | 0.46 | 0.46 | 98 | 1022.8 |
| 20260905135737 | 21 | 286 | 1.6 | 1.6 | 0.00 | 0.46 | 0.46 | 99 | 1023.1 |
| 20260905135234 | 21 | 26 | 1.6 | 3.2 | 0.00 | 0.46 | 0.46 | 99 | 1022.9 |
| 20260905134733 | 21 | 116 | 1.6 | 3.2 | 0.00 | 0.46 | 0.46 | 98 | 1022.7 |
| 20260905134233 | 21 | 356 | 0.0 | 0.0 | 0.00 | 0.46 | 0.46 | 99 | 1022.9 |
| 20260905133728 | 21 | 12 | 0.0 | 1.6 | 0.00 | 0.46 | 0.46 | 99 | 1022.6 |
| 20260905133223 | 21 | 342 | 0.0 | 0.0 | 0.00 | 0.46 | 0.46 | 98 | 1022.8 |
| 20260905132721 | 21 | 176 | 3.2 | 4.8 | 0.13 | 0.46 | 0.46 | 98 | 1022.7 |
| 20260905132218 | 21 | 29 | 1.6 | 3.2 | 0.13 | 0.46 | 0.46 | 98 | 1022.9 |
| 20260905131712 | 21 | 48 | 1.6 | 1.6 | 0.00 | 0.43 | 0.43 | 97 | 1023.4 |
| 20260905131208 | 21 | 340 | 0.0 | 1.6 | 0.00 | 0.43 | 0.43 | 97 | 1022.8 |
| 20260905130707 | 21 | 127 | 3.2 | 4.8 | 0.18 | 0.43 | 0.43 | 97 | 1022.6 |
| 20260905130202 | 21 | 114 | 3.2 | 4.8 | 0.18 | 0.43 | 0.43 | 96 | 1022.5 |
| 20260905125702 | 21 | 81 | 3.2 | 3.2 | 0.30 | 0.41 | 0.41 | 96 | 1022.8 |
| 20260905125158 | 21 | 52 | 3.2 | 3.2 | 0.79 | 0.41 | 0.41 | 94 | 1022.9 |
| 20260905124654 | 22 | 73 | 4.8 | 8.0 | 1.07 | 0.36 | 0.36 | 93 | 1022.8 |
| 20260905124149 | 22 | 352 | 1.6 | 3.2 | 1.50 | 0.28 | 0.28 | 92 | 1022.7 |
| 20260905123644 | 23 | 54 | 4.8 | 9.7 | 1.07 | 0.18 | 0.18 | 90 | 1022.8 |
| 20260905123142 | 23 | 103 | 6.4 | 9.7 | 0.18 | 0.03 | 0.03 | 85 | 1022.6 |
| 20260905122641 | 24 | 0 | 8.0 | 11.3 | 0.00 | 0.00 | 0.00 | 81 | 1022.2 |
| 20260905122136 | 25 | 45 | 1.6 | 3.2 | 0.00 | 0.00 | 0.00 | 80 | 1021.7 |
| 20260905121631 | 24 | 355 | 3.2 | 3.2 | 0.00 | 0.00 | 0.00 | 82 | 1021.9 |
| 20260905121126 | 24 | 291 | 4.8 | 8.0 | 0.00 | 0.00 | 0.00 | 83 | 1021.7 |
| 20260905120625 | 24 | 75 | 3.2 | 3.2 | 0.00 | 0.00 | 0.00 | 84 | 1021.4 |
| 20260905120120 | 24 | 353 | 8.0 | 9.7 | 0.00 | 0.00 | 0.00 | 86 | 1021.8 |
| 20260905115619 | 23 | 348 | 4.8 | 8.0 | 0.00 | 0.00 | 0.00 | 91 | 1021.8 |
| 20260905115114 | 23 | 336 | 3.2 | 3.2 | 0.00 | 0.00 | 0.00 | 94 | 1021.5 |
| 20260905114614 | 23 | 3 | 1.6 | 1.6 | 0.00 | 0.00 | 0.00 | 95 | 1021.7 |
| 20260905114113 | 23 | 346 | 0.0 | 1.6 | 0.00 | 0.00 | 0.00 | 96 | 1021.3 |
| 20260905113608 | 23 | 353 | 3.2 | 4.8 | 0.00 | 0.00 | 0.00 | 96 | 1021.5 |
| 20260905113103 | 23 | 323 | 1.6 | 3.2 | 0.00 | 0.00 | 0.00 | 96 | 1021.4 |
| 20260905112558 | 23 | 34 | 4.8 | 4.8 | 0.00 | 0.00 | 0.00 | 95 | 1021.0 |
| 20260905112054 | 23 | 339 | 0.0 | 0.0 | 0.00 | 0.00 | 0.00 | 94 | 1020.5 |
| 20260905111549 | 23 | 309 | 0.0 | 1.6 | 0.00 | 0.00 | 0.00 | 94 | 1020.4 |
| 20260905111048 | 23 | 341 | 0.0 | 0.0 | 0.00 | 0.00 | 0.00 | 94 | 1020.3 |
| 20260905110547 | 23 | 340 | 0.0 | 0.0 | 0.00 | 0.00 | 0.00 | 94 | 1020.0 |
| 20260905110043 | 23 | 104 | 1.6 | 1.6 | 0.00 | 0.00 | 0.00 | 94 | 1020.1 |
| 20260905105542 | 23 | 22 | 1.6 | 1.6 | 0.00 | 0.00 | 0.00 | 95 | 1020.0 |
| 20260905105041 | 23 | 22 | 0.0 | 1.6 | 0.00 | 0.00 | 0.00 | 95 | 1020.0 |
| 20260905104538 | 23 | 330 | 0.0 | 0.0 | 0.00 | 0.00 | 0.00 | 95 | 1020.0 |
| 20260905104037 | 23 | 23 | 0.0 | 0.0 | 0.00 | 0.00 | 0.00 | 96 | 1020.0 |
| 20260905103532 | 23 | 220 | 1.6 | 1.6 | 0.00 | 0.00 | 0.00 | 96 | 1020.2 |
| 20260905103029 | 23 | 60 | 1.6 | 1.6 | 0.00 | 0.00 | 0.00 | 97 | 1020.2 |
| 20260905102524 | 23 | 75 | 3.2 | 3.2 | 0.00 | 0.00 | 0.00 | 98 | 1020.2 |
| 20260905102020 | 23 | 320 | 1.6 | 1.6 | 0.00 | 0.00 | 0.00 | 98 | 1020.1 |
| 20260905101519 | 23 | 1 | 0.0 | 0.0 | 0.00 | 0.00 | 0.00 | 97 | 1020.3 |
| 20260905101017 | 23 | 357 | 0.0 | 0.0 | 0.00 | 0.00 | 0.00 | 97 | 1020.3 |
| 20260905100514 | 23 | 8 | 0.0 | 0.0 | 0.00 | 0.00 | 0.00 | 97 | 1020.2 |
| 20260905100013 | 23 | 13 | 1.6 | 1.6 | 0.00 | 0.00 | 0.00 | 97 | 1020.1 |
| 20260905095508 | 23 | 9 | 0.0 | 0.0 | 0.00 | 0.00 | 0.00 | 97 | 1020.0 |
| 20260905095003 | 23 | 23 | 0.0 | 0.0 | 0.00 | 0.00 | 0.00 | 96 | 1020.0 |
| 20260905094458 | 23 | 24 | 0.0 | 0.0 | 0.00 | 0.00 | 0.00 | 96 | 1020.1 |
| 20260905093956 | 23 | 23 | 0.0 | 0.0 | 0.00 | 0.00 | 0.00 | 96 | 1020.0 |
| 20260905093452 | 23 | 23 | 0.0 | 0.0 | 0.00 | 0.00 | 0.00 | 96 | 1020.1 |
| 20260905092948 | 23 | 23 | 0.0 | 0.0 | 0.00 | 0.00 | 0.00 | 97 | 1019.7 |
| 20260905092444 | 23 | 20 | 0.0 | 1.6 | 0.00 | 0.00 | 0.00 | 96 | 1019.9 |
| 20260905091939 | 23 | 2 | 0.0 | 0.0 | 0.00 | 0.00 | 0.00 | 96 | 1020.1 |
| 20260905091438 | 23 | 2 | 0.0 | 0.0 | 0.00 | 0.00 | 0.00 | 96 | 1020.1 |
| 20260905090938 | 23 | 3 | 0.0 | 0.0 | 0.00 | 0.00 | 0.00 | 96 | 1020.1 |
| 20260905090433 | 23 | 359 | 0.0 | 0.0 | 0.00 | 0.00 | 0.00 | 96 | 1019.9 |
| 20260905085932 | 23 | 344 | 0.0 | 0.0 | 0.00 | 0.00 | 0.00 | 95 | 1019.8 |
| 20260905085431 | 23 | 342 | 0.0 | 0.0 | 0.00 | 0.00 | 0.00 | 95 | 1019.8 |
| 20260905084928 | 23 | 343 | 0.0 | 0.0 | 0.00 | 0.00 | 0.00 | 95 | 1019.6 |
| 20260905084427 | 23 | 338 | 0.0 | 0.0 | 0.00 | 0.00 | 0.00 | 96 | 1019.8 |
| 20260905083922 | 23 | 334 | 0.0 | 0.0 | 0.00 | 0.00 | 0.00 | 96 | 1019.9 |
| 20260905083418 | 23 | 315 | 0.0 | 0.0 | 0.00 | 0.00 | 0.00 | 96 | 1019.6 |
| 20260905082913 | 23 | 315 | 0.0 | 0.0 | 0.00 | 0.00 | 0.00 | 95 | 1019.8 |
| 20260905082410 | 23 | 315 | 0.0 | 0.0 | 0.00 | 0.00 | 0.00 | 94 | 1019.8 |
| 20260905081909 | 23 | 315 | 0.0 | 0.0 | 0.00 | 0.00 | 0.00 | 94 | 1019.8 |
| 20260905081404 | 23 | 315 | 0.0 | 0.0 | 0.00 | 0.00 | 0.00 | 94 | 1019.8 |
| 20260905080903 | 23 | 315 | 0.0 | 0.0 | 0.00 | 0.00 | 0.00 | 94 | 1019.8 |
| 20260905080358 | 23 | 315 | 0.0 | 0.0 | 0.00 | 0.00 | 0.00 | 94 | 1019.8 |
| 20260905075857 | 24 | 314 | 0.0 | 0.0 | 0.00 | 0.00 | 0.00 | 93 | 1019.8 |
| 20260905075357 | 24 | 314 | 0.0 | 1.6 | 0.00 | 0.00 | 0.00 | 93 | 1019.8 |
| 20260905074856 | 24 | 332 | 1.6 | 1.6 | 0.00 | 0.00 | 0.00 | 92 | 1019.9 |
| 20260905074352 | 25 | 319 | 0.0 | 0.0 | 0.00 | 0.00 | 0.00 | 91 | 1019.7 |
| 20260905073848 | 25 | 315 | 0.0 | 1.6 | 0.00 | 0.00 | 0.00 | 91 | 1020.1 |
| 20260905073343 | 25 | 316 | 0.0 | 0.0 | 0.00 | 0.00 | 0.00 | 91 | 1020.0 |
| 20260905072837 | 25 | 354 | 0.0 | 0.0 | 0.00 | 0.00 | 0.00 | 91 | 1020.0 |
| 20260905072332 | 25 | 31 | 1.6 | 1.6 | 0.00 | 0.00 | 0.00 | 91 | 1020.2 |
| 20260905071829 | 25 | 82 | 1.6 | 1.6 | 0.00 | 0.00 | 0.00 | 91 | 1020.1 |
| 20260905071320 | 25 | 332 | 0.0 | 1.6 | 0.00 | 0.00 | 0.00 | 91 | 1020.2 |
| 20260905070819 | 25 | 321 | 0.0 | 1.6 | 0.00 | 0.00 | 0.00 | 90 | 1020.4 |
| 20260905070316 | 25 | 342 | 0.0 | 1.6 | 0.00 | 0.00 | 0.00 | 90 | 1020.2 |
| 20260905065815 | 25 | 334 | 0.0 | 1.6 | 0.00 | 0.00 | 0.00 | 90 | 1020.6 |
| 20260905065313 | 25 | 0 | 1.6 | 1.6 | 0.00 | 0.00 | 0.00 | 90 | 1020.4 |
| 20260905064809 | 25 | 147 | 4.8 | 4.8 | 0.00 | 0.00 | 0.00 | 90 | 1020.3 |
| 20260905064304 | 25 | 136 | 4.8 | 4.8 | 0.00 | 0.00 | 0.00 | 91 | 1020.5 |
| 20260905063803 | 25 | 58 | 1.6 | 1.6 | 0.00 | 0.00 | 0.00 | 92 | 1020.7 |
| 20260905063259 | 25 | 13 | 1.6 | 1.6 | 0.00 | 0.00 | 0.00 | 92 | 1020.9 |
| 20260905062755 | 25 | 340 | 0.0 | 0.0 | 0.00 | 0.00 | 0.00 | 92 | 1020.8 |
| 20260905062254 | 25 | 327 | 0.0 | 0.0 | 0.00 | 0.00 | 0.00 | 91 | 1021.0 |
| 20260905061750 | 25 | 311 | 0.0 | 0.0 | 0.00 | 0.00 | 0.00 | 91 | 1020.7 |
| 20260905061244 | 25 | 358 | 0.0 | 0.0 | 0.00 | 0.00 | 0.00 | 91 | 1021.0 |
| 20260905060744 | 25 | 355 | 0.0 | 0.0 | 0.00 | 0.00 | 0.00 | 91 | 1021.2 |
| 20260905060241 | 25 | 338 | 0.0 | 0.0 | 0.00 | 0.00 | 0.00 | 90 | 1020.9 |
| 20260905055739 | 25 | 339 | 0.0 | 0.0 | 0.00 | 0.00 | 0.00 | 90 | 1021.0 |
| 20260905055235 | 25 | 344 | 0.0 | 0.0 | 0.00 | 0.00 | 0.00 | 89 | 1020.9 |
| 20260905054730 | 25 | 328 | 0.0 | 0.0 | 0.00 | 0.00 | 0.00 | 89 | 1021.0 |
| 20260905054226 | 25 | 359 | 0.0 | 0.0 | 0.00 | 0.00 | 0.00 | 89 | 1021.0 |
| 20260905053726 | 25 | 359 | 0.0 | 0.0 | 0.00 | 0.00 | 0.00 | 88 | 1021.2 |
| 20260905053221 | 26 | 359 | 0.0 | 0.0 | 0.00 | 0.00 | 0.00 | 88 | 1021.2 |